Latest Weather Observations for Grove

IDT60801

Issued at 1:05 pm EST Wednesday 30 July 2014 (issued every 30 minutes, with the page automatically refreshed every 10 minutes)

About weather observations | Map of weather stations | Latest weather observations for TAS | Other Formats
Station Details ID: 094220 Name: GROVE (RESEARCH STATION) Lat: -42.99 Lon: 147.07 Height: 65.0 m
Data from the previous 72 hours. | See also: Recent months at Grove
Date/Time
EST
Temp
°C
App
Temp
°C
Dew
Point
Rel
Hum
%
Delta-T
°C
Wind Press
QNH
hPa
Press
MSL
hPa
Rain
since 9 am
mm
Dir
 
Spd
km/h
Gust
km/h
Spd
kts
Gust
kts
30/01:00pm 11.0 7.4 6.8 75 2.0 NW 15 26 8 14 - - 2.8
30/12:30pm 11.1 7.0 6.4 73 2.2 N 17 32 9 17 - - 1.6
30/12:00pm 10.5 6.2 6.9 78 1.7 N 19 30 10 16 - - 1.2
30/11:30am 11.1 7.4 6.2 72 2.3 N 15 32 8 17 - - 0.8
30/11:00am 10.8 6.6 5.6 70 2.4 NNW 17 32 9 17 - - 0.8
30/10:30am 11.1 6.5 5.5 68 2.6 NW 19 30 10 16 - - 0.4
30/10:00am 10.2 6.2 5.1 70 2.3 NNW 15 26 8 14 - - 0.2
30/09:30am 9.5 5.4 4.6 71 2.2 N 15 24 8 13 - - 0.2
30/09:00am 10.6 5.5 3.0 59 3.3 NW 19 35 10 19 - - 18.2
30/08:30am 8.2 3.6 3.8 74 1.9 N 17 30 9 16 - - 18.2
30/08:00am 8.7 3.4 2.8 66 2.5 WNW 20 28 11 15 - - 18.0
30/07:30am 8.5 3.2 1.7 62 2.8 NW 19 44 10 24 - - 17.8
30/07:00am 9.8 4.8 -1.5 45 4.4 W 15 32 8 17 - - 17.6
30/06:30am 9.5 3.7 -1.6 46 4.3 WNW 19 39 10 21 - - 17.6
30/06:00am 9.3 3.6 -0.9 49 4.0 NW 19 28 10 15 - - 17.6
30/05:30am 9.8 3.6 -3.0 40 4.8 WNW 20 35 11 19 - - 17.6
30/05:00am 9.2 4.1 -1.8 46 4.2 WNW 15 35 8 19 - - 17.6
30/04:30am 9.4 2.6 -1.8 45 4.3 W 24 35 13 19 - - 17.6
30/04:00am 9.8 2.2 -2.3 42 4.6 W 28 50 15 27 - - 17.6
30/03:59am 9.9 2.2 -2.8 41 4.8 W 28 50 15 27 - - 17.6
30/03:30am 8.9 4.1 0.5 55 3.4 WNW 15 28 8 15 - - 17.6
30/03:00am 9.0 2.5 0.0 53 3.6 WNW 24 43 13 23 - - 17.6
30/02:30am 8.1 3.2 1.8 64 2.6 W 17 33 9 18 - - 17.6
30/02:13am 7.8 0.1 2.3 68 2.3 W 32 50 17 27 - - 17.6
30/02:11am 8.0 -0.4 1.7 64 2.6 W 35 50 19 27 - - 17.6
30/02:00am 7.0 -1.5 3.2 77 1.6 WSW 37 61 20 33 - - 17.6
30/01:30am 8.9 0.2 -0.2 53 3.6 WSW 35 59 19 32 - - 17.0
30/01:22am 9.0 1.6 -0.4 52 3.7 W 28 54 15 29 - - 17.0
30/01:00am 8.6 3.0 1.0 59 3.1 W 20 41 11 22 - - 17.0
30/12:38am 8.6 1.6 1.9 63 2.8 W 28 72 15 39 - - 16.8
30/12:30am 8.7 3.3 1.1 59 3.1 W 19 35 10 19 - - 16.8
30/12:00am 8.7 1.1 0.5 56 3.3 W 30 54 16 29 - - 16.8
 
Date/Time
EST
Temp
°C
App
Temp
°C
Dew
Point
Rel
Hum
%
Delta-T
°C
Wind Press
QNH
hPa
Press
MSL
hPa
Rain
since 9 am
mm
Dir
 
Spd
km/h
Gust
km/h
Spd
kts
Gust
kts
29/11:34pm 9.3 -1.4 0.4 54 3.6 W 46 70 25 38 - - 16.6
29/11:30pm 9.6 3.9 -1.1 47 4.2 W 19 41 10 22 - - 16.4
29/11:00pm 7.7 -3.8 2.2 68 2.3 W 52 98 28 53 - - 16.4
29/10:53pm 9.3 -2.5 2.5 62 2.9 W 54 98 29 53 - - 16.0
29/10:38pm 10.2 3.0 1.0 53 3.8 NW 28 46 15 25 - - 15.8
29/10:30pm 11.1 4.8 -1.3 42 4.9 NW 22 35 12 19 - - 15.8
29/10:08pm 10.9 3.5 -0.5 45 4.6 W 28 48 15 26 - - 15.8
29/10:00pm 10.4 4.3 0.4 50 4.1 WSW 22 35 12 19 - - 15.8
29/09:30pm 9.8 2.2 0.8 53 3.7 W 30 48 16 26 - - 15.4
29/09:18pm 10.0 -0.3 0.4 51 3.9 W 44 67 24 36 - - 15.4
29/09:17pm 9.8 -1.5 1.1 54 3.6 W 50 67 27 36 - - 15.4
29/09:09pm 10.4 3.3 1.3 53 3.8 WSW 28 54 15 29 - - 15.0
29/09:00pm 10.3 3.2 1.5 54 3.7 WNW 28 48 15 26 - - 15.0
29/08:34pm 9.6 2.6 1.7 58 3.3 WNW 28 56 15 30 - - 14.8
29/08:30pm 7.9 5.3 4.0 76 1.7 WSW 7 15 4 8 - - 14.8
29/08:00pm 8.8 3.3 4.0 72 2.1 WSW 22 35 12 19 - - 13.8
29/07:30pm 9.9 3.7 2.4 59 3.2 W 24 50 13 27 - - 13.0
29/07:26pm 10.5 3.4 1.4 53 3.8 W 28 50 15 27 - - 12.8
29/07:00pm 10.5 5.4 2.9 59 3.3 W 19 28 10 15 - - 12.8
29/06:30pm 10.6 3.7 2.4 57 3.5 NW 28 54 15 29 - - 12.4
29/06:24pm 10.8 3.8 1.8 54 3.8 NW 28 50 15 27 - - 12.2
29/06:22pm 10.8 3.4 1.8 54 3.8 NW 30 50 16 27 - - 12.2
29/06:00pm 8.8 5.3 5.5 80 1.5 W 13 20 7 11 - - 12.2
29/05:30pm 9.3 2.3 6.7 84 1.2 WSW 33 56 18 30 - - 11.0
29/05:26pm 10.3 2.9 6.7 78 1.7 SW 35 54 19 29 - - 9.6
29/05:24pm 11.1 4.0 6.2 72 2.3 SW 33 44 18 24 - - 9.6
29/05:00pm 10.7 7.9 7.1 78 1.7 NNE 11 22 6 12 - - 9.4
29/04:30pm 10.2 7.5 7.5 83 1.3 NNW 11 24 6 13 - - 7.8
29/04:00pm 10.1 6.3 7.4 83 1.3 N 17 26 9 14 - - 7.0
29/03:30pm 9.9 5.0 6.7 80 1.5 N 22 35 12 19 - - 6.6
29/03:00pm 9.8 6.9 6.6 80 1.5 N 11 19 6 10 - - 5.8
29/02:30pm 10.0 6.6 5.9 75 1.9 N 13 20 7 11 - - 5.2
29/02:00pm 10.1 6.1 5.0 70 2.3 NNW 15 26 8 14 - - 4.8
29/01:30pm 10.1 6.4 4.5 68 2.5 N 13 24 7 13 - - 4.6
29/01:00pm 9.8 5.3 4.4 69 2.4 NNW 17 33 9 18 - - 4.6
29/12:30pm 9.8 4.6 3.4 64 2.8 NW 20 54 11 29 - - 4.6
29/12:00pm 9.3 4.0 3.0 65 2.7 NW 20 50 11 27 - - 4.2
29/11:50am 8.8 4.3 4.3 73 2.0 NW 17 57 9 31 - - 4.2
29/11:38am 9.5 0.8 4.3 70 2.3 WNW 39 63 21 34 - - 3.6
29/11:30am 9.2 5.7 5.5 78 1.7 WNW 13 22 7 12 - - 3.2
29/11:00am 10.0 4.7 4.9 70 2.3 NNW 22 43 12 23 - - 2.0
29/10:30am 12.1 7.2 2.2 50 4.3 NW 17 33 9 18 - - 1.4
29/10:00am 12.5 7.3 3.6 54 4.0 NW 20 41 11 22 - - 1.4
29/09:30am 10.9 7.5 5.7 70 2.4 W 13 30 7 16 - - 1.4
29/09:00am 11.2 6.2 6.6 73 2.2 NW 22 37 12 20 - - 10.0
29/08:30am 11.4 7.4 6.5 72 2.3 N 17 28 9 15 - - 8.4
29/08:00am 10.3 5.9 6.7 78 1.7 N 19 32 10 17 - - 8.4
29/07:30am 10.2 5.7 6.8 79 1.6 N 20 39 11 21 - - 7.6
29/07:03am 10.0 3.9 6.8 80 1.5 N 28 46 15 25 - - 5.8
29/07:00am 10.3 4.9 6.5 77 1.8 N 24 43 13 23 - - 5.6
29/06:30am 10.4 5.4 6.3 76 1.9 N 22 44 12 24 - - 3.4
29/06:00am 11.6 6.8 4.8 63 3.1 N 19 35 10 19 - - 2.4
29/05:30am 11.9 7.4 4.1 59 3.5 N 17 41 9 22 - - 2.4
29/05:00am 11.8 6.3 4.0 59 3.5 NNW 22 37 12 20 - - 2.4
29/04:30am 11.8 5.9 4.0 59 3.5 NNW 24 39 13 21 - - 2.4
29/04:00am 11.6 6.6 4.6 62 3.2 NNW 20 35 11 19 - - 2.4
29/03:30am 11.8 8.1 4.3 60 3.4 NNW 13 24 7 13 - - 2.4
29/03:00am 11.6 6.5 4.3 61 3.3 N 20 37 11 20 - - 2.4
29/02:30am 11.5 7.8 4.4 61 3.2 NW 13 22 7 12 - - 2.4
29/02:00am 10.0 8.1 4.9 70 2.3 ENE 4 9 2 5 - - 2.4
29/01:30am 11.3 8.0 4.7 64 3.0 N 11 24 6 13 - - 2.4
29/01:00am 10.8 5.9 5.1 68 2.6 NW 20 37 11 20 - - 2.4
29/12:30am 10.0 7.5 6.4 78 1.7 W 9 17 5 9 - - 2.2
29/12:00am 11.5 5.3 4.4 61 3.2 WNW 26 48 14 26 - - 1.4
 
Date/Time
EST
Temp
°C
App
Temp
°C
Dew
Point
Rel
Hum
%
Delta-T
°C
Wind Press
QNH
hPa
Press
MSL
hPa
Rain
since 9 am
mm
Dir
 
Spd
km/h
Gust
km/h
Spd
kts
Gust
kts
28/11:30pm 12.0 7.3 2.9 53 4.0 W 17 32 9 17 - - 1.0
28/11:00pm 11.9 6.8 3.3 55 3.8 WNW 19 35 10 19 - - 1.0
28/10:30pm 11.7 7.1 3.6 57 3.6 WNW 17 35 9 19 - - 1.0
28/10:00pm 11.6 7.4 3.8 59 3.5 NW 15 28 8 15 - - 1.0
28/09:30pm 10.3 7.8 4.5 67 2.6 NE 7 19 4 10 - - 1.0
28/09:00pm 10.8 6.8 4.9 67 2.7 N 15 22 8 12 - - 1.0
28/08:30pm 10.9 8.0 4.5 64 2.9 N 9 17 5 9 - - 1.0
28/08:00pm 11.4 7.3 4.3 61 3.2 WNW 15 32 8 17 - - 1.0
28/07:30pm 10.5 7.6 4.7 67 2.6 N 9 22 5 12 - - 1.0
28/07:00pm 10.7 7.9 5.2 69 2.5 W 9 13 5 7 - - 0.8
28/06:30pm 10.9 7.7 5.0 67 2.7 W 11 19 6 10 - - 0.8
28/06:00pm 12.8 8.7 2.0 48 4.7 W 13 39 7 21 - - 0.2
28/05:30pm 12.7 8.0 1.2 45 4.9 NNW 15 20 8 11 - - 0.2
28/05:00pm 12.2 9.3 2.6 52 4.2 W 7 17 4 9 - - 0.2
28/04:30pm 12.7 8.1 1.8 47 4.7 WNW 15 28 8 15 - - 0.2
28/04:00pm 13.0 7.7 1.6 46 4.9 NW 19 33 10 18 - - 0.2
28/03:30pm 14.2 8.7 1.6 42 5.5 NW 20 39 11 21 - - 0.2
28/03:00pm 14.3 7.5 1.1 40 5.7 WNW 26 43 14 23 - - 0.2
28/02:30pm 14.4 9.2 2.5 44 5.3 WNW 19 28 10 15 - - 0.2
28/02:00pm 14.3 9.4 2.0 43 5.4 WNW 17 28 9 15 - - 0.2
28/01:30pm 14.4 8.4 1.2 40 5.7 WNW 22 35 12 19 - - 0.2
28/01:00pm 14.2 7.9 1.6 42 5.5 W 24 46 13 25 - - 0.2
28/12:30pm 14.4 8.5 1.5 41 5.6 NW 22 41 12 22 - - 0.2
28/12:00pm 14.6 9.8 4.5 50 4.7 WNW 19 30 10 16 - - 0.2
28/11:30am 14.6 10.8 3.7 48 5.0 NW 13 32 7 17 - - 0.2
28/11:00am 13.1 10.2 6.7 65 3.1 W 11 20 6 11 - - 0.2
28/10:30am 13.3 9.7 5.2 58 3.8 NW 13 24 7 13 - - 0.2
28/10:00am 13.6 10.9 5.5 58 3.8 NNW 9 20 5 11 - - 0.2
28/09:30am 12.4 8.8 4.8 60 3.5 WNW 13 28 7 15 - - 0.2
28/09:00am 13.1 8.6 4.1 54 4.1 NNW 17 28 9 15 - - 0.0
28/08:30am 12.9 9.8 3.6 53 4.2 W 9 20 5 11 - - 0.0
28/08:00am 12.1 9.7 4.4 59 3.5 WNW 6 13 3 7 - - 0.0
28/07:30am 11.7 9.4 4.9 63 3.1 NW 6 9 3 5 - - 0.0
28/07:00am 13.0 10.4 4.0 54 4.1 W 7 19 4 10 - - 0.0
28/06:30am 12.1 9.3 5.2 62 3.2 W 9 19 5 10 - - 0.0
28/06:00am 10.5 8.4 6.7 77 1.8 W 7 13 4 7 - - 0.0
28/05:30am 9.4 6.9 6.4 81 1.4 W 9 17 5 9 - - 0.0
28/05:00am 12.5 9.8 5.7 63 3.2 N 9 13 5 7 - - 0.0
28/04:30am 11.2 9.9 5.8 69 2.5 W 2 7 1 4 - - 0.0
28/04:00am 12.8 9.6 5.0 59 3.6 N 11 20 6 11 - - 0.0
28/03:30am 13.2 9.0 4.0 53 4.2 N 15 32 8 17 - - 0.0
28/03:00am 12.7 9.3 3.8 54 4.0 NNE 11 20 6 11 - - 0.0
28/02:30am 12.5 9.4 3.8 55 3.9 NNE 9 15 5 8 - - 0.0
28/02:00am 12.6 8.8 4.0 56 3.9 N 13 20 7 11 - - 0.0
28/01:30am 12.3 9.0 4.4 58 3.6 N 11 17 6 9 - - 0.0
28/01:00am 12.1 9.6 4.9 61 3.3 N 7 13 4 7 - - 0.0
28/12:30am 11.0 8.5 4.8 65 2.8 NNW 7 13 4 7 - - 0.0
28/12:00am 12.6 8.6 4.8 59 3.6 N 15 20 8 11 - - 0.0
 
Date/Time
EST
Temp
°C
App
Temp
°C
Dew
Point
Rel
Hum
%
Delta-T
°C
Wind Press
QNH
hPa
Press
MSL
hPa
Rain
since 9 am
mm
Dir
 
Spd
km/h
Gust
km/h
Spd
kts
Gust
kts
27/11:30pm 11.8 9.0 5.1 63 3.1 NW 9 15 5 8 - - 0.0
27/11:00pm 9.9 7.6 5.8 75 1.9 WNW 7 15 4 8 - - 0.0
27/10:30pm 8.3 5.9 5.4 82 1.3 WSW 7 13 4 7 - - 0.0
27/10:00pm 10.3 8.0 5.5 72 2.2 ESE 7 11 4 6 - - 0.0
27/09:30pm 10.8 8.1 5.4 69 2.5 E 9 17 5 9 - - 0.0
27/09:00pm 11.2 8.8 5.1 66 2.8 E 7 11 4 6 - - 0.0
27/08:30pm 8.3 6.0 5.6 83 1.2 ENE 7 13 4 7 - - 0.0
27/08:00pm 7.0 4.7 5.7 91 0.6 NE 7 9 4 5 - - 0.0
27/07:30pm 7.4 5.2 6.1 91 0.6 NE 7 9 4 5 - - 0.0
27/07:00pm 8.2 6.0 6.2 87 0.9 NE 7 11 4 6 - - 0.0
27/06:30pm 8.8 7.7 6.7 87 1.0 NW 2 6 1 3 - - 0.0
27/06:00pm 9.8 7.9 6.6 80 1.5 ESE 6 9 3 5 - - 0.0
27/05:30pm 10.7 8.7 6.4 75 2.0 N 6 7 3 4 - - 0.0
27/05:00pm 11.4 8.9 6.5 72 2.3 NE 9 13 5 7 - - 0.0
27/04:30pm 13.0 12.1 6.0 62 3.3 CALM 0 0 0 0 - - 0.0
27/04:00pm 13.5 10.3 5.2 57 3.9 NNE 11 17 6 9 - - 0.0
27/03:30pm 13.3 11.0 5.7 60 3.6 NE 7 11 4 6 - - 0.0
27/03:00pm 13.4 10.9 4.8 56 4.0 N 7 15 4 8 - - 0.0
27/02:30pm 13.4 8.9 4.2 53 4.2 N 17 26 9 14 - - 0.0
27/02:00pm 13.2 8.3 4.0 53 4.2 N 19 28 10 15 - - 0.0
27/01:30pm 13.1 8.2 4.1 54 4.1 N 19 28 10 15 - - 0.0

Other Formats:

Comma delimited format used in spreadsheet applications
http://www.bom.gov.au/fwo/IDT60801/IDT60801.95977.axf

JavaScript Object Notation format (JSON) in row-major order
http://www.bom.gov.au/fwo/IDT60801/IDT60801.95977.json